TIMESTAMP,CO2_1_1_1,H2O_1_1_1,TAU_1_1_1,TAU_SSITC_TEST_1_1_1,H_1_1_1,H_SSITC_TEST_1_1_1,LE_1_1_1,LE_SSITC_TEST_1_1_1,FC_1_1_1,FC_SSITC_TEST_1_1_1,WD_0_0_1,WS_0_0_1,WS_MAX_0_0_1,U_SIGMA_0_0_1,V_SIGMA_0_0_1,W_SIGMA_0_0_1,USTAR_0_0_1,MO_LENGTH_0_0_1,ZL_0_0_1,FETCH_MAX_0_0_1,FETCH_70_0_0_1,FETCH_80_0_0_1,FETCH_90_0_0_1,PA_0_0_1,RH_0_0_1,TA_0_0_1,VPD_0_0_1,T_SONIC_0_0_1,T_SONIC_SIGMA_0_0_1
[yyyymmddHHMMSS],[mmolCO2 mol-1],[mmolH2O mol-1],[kg m-1 s-2],[#],[W m-2],[#],[W m-2],[#],[umolCO2 m-2 s-1],[#],[Decimal degrees],[m s-1],[m s-1],[m s-1],[m s-1],[m s-1],[m s-1],[m],[#],[m],[m],[m],[m],[kPa],[%],[deg C],[hPa],[deg C],[deg C]
20220311003000,420.34611547198097,1.4258716858863885,7.4495859008557361E-002,0,-18.255828687066767,0,1.7566381089954402,0,6.4699231921057795E-002,1,206.26778503561729,2.0419458731290385,6.5725738033512009,0.64046277925204098,0.52108556635076098,0.35491771639059005,0.24438820170857353,66.550203689659071,0.28549875051625606,92.900263444929791,169.85131059669260,203.26863815420961,254.46821423499568,93.882955468532998,51.018965517241377,-11.067241379310360,1.2855233873023852,-11.598784851921835,0.20562972650397029
20220311010000,420.50843357938624,1.4140850297463134,4.2935452222494723E-002,0,-15.783762850085507,0,0.46926811491751091,0,-3.7954203641155284E-003,2,201.75850255971048,2.1209024689544811,3.7167569101838986,0.45315142861238850,0.42830632003371472,0.28269410176458287,0.18537718020575134,33.595156654121404,0.56555771403641031,181.74834661691787,1742.0000000000000,3228.0000000000000,8866.0000000000000,93.886068677678921,52.373333333333335,-11.498666666666679,1.2076278751141456,-12.008182319225170,0.24624570549459227
20220311013000,420.79929879700887,1.4052440780989754,2.7284323608684099E-002,0,-11.150678677666910,1,0.22214413201799998,1,-6.6194918103831962E-002,2,178.75539280180595,1.9214686196144544,3.4890823311344219,0.36072920579468343,0.53229167852336312,0.24176202339128247,0.14764779638093747,24.027381947326120,0.79076447203663858,235.38590620234342,2276.0000000000000,4230.0000000000000,-9999.,93.889203041232648,53.939999999999998,-11.944000000000017,1.1269298620540218,-12.434344170464328,0.28198690642674296
20220311020000,420.98442212375068,1.3871706585655088,9.2786980901975194E-002,0,-40.999406820405760,0,1.2506804595920118,0,2.8123100303759769E-002,2,160.27057275212425,2.0884985306555310,4.2121459614966321,0.56102001897619569,0.46698326612486807,0.35724341551299038,0.27207365026450436,40.882718595490843,0.46474404473912856,100.70074885613688,184.11308576560054,220.33634052318908,275.83495227371691,93.869078711805543,55.188333333333333,-12.391666666666652,1.0575788252564533,-12.879827590942341,0.29592754886030215
20220311023000,421.26088944485264,1.3870082066543086,9.3562291173161699E-002,0,-38.301337572363543,0,0.22154941742699019,0,5.6338985342605875E-002,1,160.89254557573634,2.1668498448733295,4.4704399172449252,0.59487689940387700,0.60676449075043160,0.42745129328432885,0.27300818876723243,44.210600610096847,0.42976118256264467,87.475438953349695,159.93300126705202,191.39895505817884,239.60877950660046,93.855941063394596,57.067999999999998,-12.809333333333313,0.97959316606780966,-13.318838510306477,0.23809874475323589
20220311030000,421.63400181264069,1.3926969484046183,0.13892829344106614,0,-57.206276849050518,0,-5.8664121381447339E-002,2,-4.9870335458799528E-002,2,157.19516962453122,2.3019379598332268,5.5565246211680126,0.70156731996345922,0.61196319258208653,0.45771166609667718,0.33247380869524140,53.457555205983084,0.35542216487059775,96.958807444159405,177.27162343350312,212.14885744552925,265.58519502257258,93.846150751736118,58.911666666666669,-13.152333333333331,0.91181510656796749,-13.656846121893977,0.24834622443966309
20220311033000,422.06955921309464,1.4640175109726594,0.25089598093556609,0,-87.928542718252899,0,-1.6771044170183920,0,0.21924062595734820,0,161.98357271260571,2.6969171804594723,5.8210545161744527,0.89199609953594294,0.78118709498045436,0.60733840291206131,0.44681139198283842,84.408135107211621,0.22509678688987747,97.951185202307627,179.08600647805068,214.32021054995712,268.30347144718360,93.832928341362845,62.047333333333334,-13.177666666666653,0.84049898935438050,-13.642293543497715,0.27387570615559376
20220311040000,422.60269962592690,1.4840759301757984,0.21049533986788913,0,-58.622994441717459,0,-0.46865478470968286,1,0.19225806894457667,0,152.76999877860476,2.4546925106077118,5.6666938009904646,0.82275693184372722,0.70468927764061706,0.53047530597830406,0.40914391736941669,97.188517276911512,0.19549634599182958,101.72404971323066,185.98400609743712,222.57535432067726,278.63793185712950,93.806429309895819,64.024666666666661,-13.399666666666690,0.78246101088340403,-13.939635039435416,0.23647596147671765
20220311043000,422.90675329868753,1.5360485477003230,0.20993518068342903,0,-55.040750953819099,0,-1.5108869744549336,0,0.21490468323154044,0,155.78496889571971,2.6460601527818759,5.6680140543398663,0.87454753771656679,0.80669647178115089,0.58550823087861348,0.40881988935601465,103.24262873798422,0.18403250897668852,93.940768609971983,171.75368589049151,205.54529550745730,257.31831908327234,93.772781154286250,65.268333333333331,-13.217333333333329,0.76669268454891093,-13.692324977976114,0.25089244399557842
20220311050000,422.96361222003532,1.5954611917910728,0.30299150685147008,0,-96.476648126874636,0,-3.4372849794217997,1,1.2359458246053561,0,160.52189780343735,2.6905996010501645,6.6291581045464314,0.95478503938715986,0.86638076259451335,0.67747883671031051,0.49153236357862701,102.33871981522483,0.18565798003243528,96.867927423925480,177.10546577181967,211.95000916175309,265.33626056748056,93.728562028862854,66.197666666666663,-12.929666666666662,0.76379828114487336,-13.384920871310726,0.28357546323942134
20220311053000,422.59570528309189,1.6504372018605753,0.45642712779122352,0,-90.549079932253463,0,-0.50674330017016644,1,1.5571089800595486,0,163.78366390941667,3.0699247289598328,7.8849324442191335,1.2600337102811463,1.0639956645532411,0.82589260254224073,0.60388467171042848,202.13326809895651,9.3997391813297887E-002,97.471857806995359,178.20964312578798,213.27142744362197,266.99051945118276,93.683009036458330,66.344666666666669,-12.544333333333327,0.78455644614010678,-13.013317943149104,0.24034387154910122
20220311060000,422.78379583673905,1.6486733508298013,0.39136956743912127,0,-74.485118952976848,0,0.12873737721247902,1,1.1437062414742045,0,163.32658653481354,2.8084136552614019,7.4981999916636646,1.2307523197724335,0.99417160697612661,0.75517239827847882,0.55907816937242338,194.91851241607998,9.7476631462495078E-002,98.445538962070160,179.98984281694163,215.40187180458759,269.65758298338716,93.636476860894092,67.518666666666661,-12.780666666666662,0.74285859569885593,-13.280322867499422,0.23169469319542196
20220311063000,423.06989283264596,1.6542209627599955,0.32034539822404995,0,-74.452029098392970,0,0.16452880279728335,2,1.1285111903522869,0,159.19246048679273,2.9069074971392199,7.7747765903805224,1.1391994918968609,0.93493021856468761,0.73721135630705126,0.50561771728973381,144.20087093685737,0.13176064663520454,92.605997349489030,169.31329832286937,202.62477487269527,253.66217381013612,93.598137991536461,69.418333333333337,-13.086666666666645,0.68228241221490404,-13.578225807189938,0.21882879584471435
20220311070000,423.15766834158177,1.6806078218782179,0.44621641791328498,0,-80.907679220567331,0,-0.27385405487584380,2,1.2702936176316959,0,161.18671642122575,2.9513720896095541,8.3355651615569037,1.1639121781450459,0.97950048030032721,0.75096287846634646,0.59676917154709375,218.11926382479353,8.7108307935891152E-002,104.18500767942179,190.48342214192141,227.96000615903247,285.37887699271857,93.563576389564119,70.924333333333337,-13.160666666666657,0.64479861037617581,-13.656693932755445,0.20723420408778118
20220311073000,423.13000737601254,1.6959761834374705,0.27590121564405756,0,-59.821912658017787,0,-1.9959644473604476,0,0.85900878962536142,0,158.05164629675056,2.9861271564481604,7.4331127170007401,1.1201581713888655,0.97952018855945766,0.72240352114378670,0.46928465799467828,143.41583480496413,0.13248188406697711,88.670692773319530,162.11830645661075,194.01420723534738,242.88276489530259,93.528234584852441,71.945999999999998,-13.229333333333329,0.61868146398815671,-13.714291008843247,0.20503999285296395
20220311080000,423.35828272904780,1.6923054998042562,0.37738448057438373,0,-52.492291455753175,0,-1.4724452001697179,0,0.88142507367315226,0,156.24910511156978,3.0585769585695375,7.2682980052388890,1.1148532949932546,0.97922834683521265,0.75012887056308530,0.54869803112662752,261.13686177697514,7.2758782006911826E-002,97.501863617194743,178.26450331669477,213.33708108064911,267.07271001399675,93.472805429904525,73.490333333333339,-13.524333333333345,0.57076137081270562,-14.038827798631473,0.19652237501885819
20220311083000,423.39765415343777,1.7008778909097846,0.36925928291712279,0,-63.814800442236148,0,-0.85082799010506727,1,1.0481485000234279,0,154.13462286665475,2.9731186857913268,7.3180320885305861,1.1247977854712814,0.96960477630860387,0.73271957183972547,0.54271513842862606,207.75346072139209,9.1454553556053447E-002,98.483214315355653,180.05872537868515,215.48430663814284,269.76078161292514,93.409624896655473,75.138333333333335,-13.742666666666651,0.52583552708607584,-14.253203509319292,0.18346693707421100
20220311090000,423.41665463346072,1.7223045932924463,0.41013924905827126,0,-66.938850612104105,0,-1.9817179879664886,0,1.2375985294228415,0,148.31185240516055,3.0804479812298400,7.2859434901441924,1.1837494335820888,0.97221645430498971,0.74566902407225599,0.57205436289591438,231.84228653625607,8.1952262824274438E-002,101.29030052072592,185.19097423632883,221.62629772609409,277.44982561986382,93.350569895833360,76.584999999999994,-13.830666666666673,0.49169281053996627,-14.342612265692821,0.19765714843096435
20220311093000,423.43564259974261,1.7559306903203151,0.47609862686796034,0,-57.778947627854798,0,-2.7615894981868325,0,1.1174856485080866,0,146.75231047983382,3.3021099115982731,8.7928644556817712,1.2564228707361433,1.0239395769857813,0.77175973410664256,0.61659612496853045,336.17876236421426,5.6517549967702904E-002,104.63328007865994,191.30300705687765,228.94083997732702,286.60676454324840,93.283223131727425,77.862666666666669,-13.805333333333351,0.46582567643998118,-14.302144063313790,0.19369167138253582
20220311100000,423.90568391807841,1.7411672150320043,0.43782967823260860,0,-49.345724367174384,0,-1.7895087206215261,0,1.0585840787373553,0,139.75432443170911,3.0518587515740028,7.4930158391243831,1.2106521107582826,0.91731106077100344,0.69810317961798063,0.59113425553195076,346.67114168196809,5.4806984820877792E-002,109.61452556921623,200.41031250038043,239.83995855493356,300.25116766595198,93.214988192481457,79.261666666666670,-14.135333333333335,0.42476953381395960,-14.706166803907081,0.17912682951136927
20220311103000,424.19275908279059,1.7300573709000746,0.40345530444639699,0,-29.826450364564980,0,-0.42492945344622696,1,0.80509853122962527,0,142.14035833044082,3.0204261196771571,7.4071537720277103,1.1223341954010557,0.94349222505646091,0.72907852310971377,0.56725079686732982,506.59188607240742,3.7505535564942551E-002,102.43669249567972,187.28694438951209,224.13463868120786,280.58997084510048,93.163035450520837,80.866666666666660,-14.464666666666687,0.38145359355388309,-15.041721551683167,0.13561185440567383
20220311110000,424.38153799040737,1.7413443990627770,0.34169545997173773,0,-40.405338753126294,0,-0.47463227526846902,2,0.90979799422860941,0,142.72965385547423,3.0579918054593080,6.7728430184733490,1.1207890083556038,0.91226403909466802,0.68071027248052018,0.52200112538865850,291.34157328482195,6.5215546774799557E-002,101.25633586466641,185.12887601258058,221.55198201237508,277.35679116491099,93.130579662326411,82.183333333333337,-14.586333333333357,0.35167068018038661,-15.137661489698587,0.13881363674563132
20220311113000,424.09184002867283,1.7902894146238737,0.19945906752078407,0,-53.203022212605902,0,-2.3542513657306432,1,1.3026543464289084,0,145.09846309633855,2.6846647172198179,6.2075208996656404,0.90131403470184035,0.78103155260693991,0.59141950047181613,0.39903405965396616,98.815875682232843,0.19227679630244082,91.400034777136653,167.10841411857393,199.98609161543700,250.35885548959479,93.101304552517362,83.163333333333327,-14.396999999999991,0.33753570124512577,-14.880087434556799,0.29424651564787097
20220311120000,422.81082967317354,1.9717842031519457,0.48613075223508029,0,-81.631613429201266,0,-2.1077666725619797,0,1.6545891300583506,0,162.61919769661415,3.2271744641344982,9.5746705016925020,1.4281436973489212,1.3110251587715434,0.94647124426522744,0.62521141231064437,247.60799890551638,7.6734193095474773E-002,89.864979230614182,164.30184299867477,196.62734279318363,246.15410052776787,93.039111401821685,79.808666666666667,-12.714666666666687,0.46425475368193048,-13.033073613112947,0.73714183441807957
20220311123000,422.26803042909597,2.0817264159260676,1.0996272086923533,0,-43.159759239272731,0,-3.7156588413888190,1,0.74733154794755852,0,176.80752846243652,3.5687500653364861,10.433547271911461,1.8064922187911769,1.5336853794112386,1.1779581559071646,0.94285635965275516,1605.7485130674700,1.1832487992596175E-002,104.78700722641020,191.58406931172422,229.27719971207685,287.02784701725705,92.999047657118069,75.943666666666672,-11.428333333333342,0.61341798484096899,-11.916257798088907,0.11789367265124370
20220311130000,422.36891780290915,2.1687727418925165,1.1376855239531147,0,-14.792105347843497,0,-1.0721224599609416,1,0.58294140514871540,0,186.54022729280683,3.8140655728731034,11.464857301688458,1.8578760573580317,1.4650193970632339,1.1630066227165798,0.95910123424382754,4931.2496758798916,3.8529787069866415E-003,107.32001123288563,196.21520849575427,234.81949050590904,293.96613741898437,92.989388423177076,79.104666666666660,-11.427333333333308,0.53285754027519205,-11.949033035278319,6.3955665630125225E-002
20220311133000,422.37912639337475,2.2638373998878842,0.85749336719434011,0,19.266947904629411,1,1.1377014420187685,0,0.16522952800500496,2,187.29681869534684,3.4572977108480183,10.022059425117991,1.7123092130581017,1.5154028325223690,1.1382189368026039,0.83273210985773183,-2477.8345091554884,-7.6679858682231778E-003,97.516589342220371,178.29142663857073,213.36930142062229,267.11304605623855,92.980143384765626,82.506666666666661,-11.418666666666695,0.44641157953013222,-11.938414710998529,0.10415858649982961
20220311140000,422.33523306131303,2.3330357831648616,0.97181093371163241,0,26.469324271118374,0,4.8028604059473317,0,0.67195210212742940,0,191.54815337267360,3.7971186947982454,10.914079769678411,1.9514941928188492,1.5717763698439529,1.1343593129804117,0.88713483679728000,-2180.4089077247804,-8.7139618319694804E-003,102.85989914417419,188.06070111779766,225.06062786473984,281.74919942100865,92.961238608723960,82.916666666666671,-11.106333333333339,0.44696195819916912,-11.646408763461636,0.14733999782760626
20220311143000,421.85516529208633,2.0926671739242124,1.2378496167229947,0,-304.94757265910494,2,-62.847755154424163,2,-0.37114243269300246,2,251.66104868145990,5.1079834334900411,15.396665897810125,2.5539243622397567,2.5461929827714771,1.3358178243728824,0.99864430301248308,270.02932829319167,7.0362727338158751E-002,99.216927879073623,181.40018777910063,217.08969451716251,271.77053673520186,92.994732077869770,82.131333333333330,-12.338999999999999,0.42350472760661434,-13.232998189916430,1.2646584670002874
20220311150000,421.03357653001137,1.7345191817952408,1.5833376625767519,0,120.65837444588583,0,21.430593276729795,1,-0.24075146519463428,2,249.56723093186878,4.4878767815799021,13.265799298574796,2.2120862096002800,1.6540757138247069,1.2163538141875563,1.1278761673445517,-983.45247744738992,-1.9319693056562979E-002,117.87347814761783,215.51031187152330,257.91080120853979,322.87371830406937,93.039329652418871,71.274333333333331,-12.901333333333355,0.65057760850832380,-13.626321366358809,0.25509702243054483
20220311153000,421.17250872443424,1.4013581079657056,1.1258834301631493,0,157.66974496828669,0,10.330075823789594,1,0.59472254065282171,0,245.05860165357325,4.3604221422468354,14.120667266931033,2.0548995868242397,1.7747985039236267,1.2345501236450858,0.95211862084592969,-452.75575128125018,-4.1965231686692084E-002,101.71869155585176,185.97420967685187,222.56363050727742,278.62325503395124,93.049288192708332,54.757333333333335,-12.276999999999987,1.0776669648986903,-13.109764650980651,0.28658982814879341
20220311160000,421.33421976388701,1.2801149687329163,1.9318825687801304,0,221.13081532703424,0,22.526767172198596,0,0.38951504512424995,1,238.20948475251527,5.5393144113642565,13.206596969775930,2.3215206431326725,1.9641661508002981,1.3715208769774754,1.2468812254828907,-725.09899023707760,-2.6203318796220884E-002,116.02538821514263,212.13141405690575,253.86712350698593,317.81151366197582,93.061433524522570,50.372999999999998,-12.362666666666655,1.1739656763688957,-13.327765688578268,0.29530928821919156
20220311163000,421.36133399830737,1.3221495094388889,1.4548547628715698,0,226.65444349988766,0,7.5234051418430443,1,0.51363086697555682,1,240.47687339000117,5.3181468236059137,14.035166797051614,2.2036840581150838,2.1269212760261040,1.3072532878104612,1.0819917583756820,-462.31957940810872,-4.1097113006386236E-002,107.63320383241161,196.78782445534412,235.50476556138139,294.82402047073947,93.079590132643631,51.945000000000000,-12.340666666666664,1.1387970689961189,-13.380821695448105,0.39954407559742117
20220311170000,421.55229330642646,1.3631768787888872,1.5065356140711523,0,159.63150829944709,0,16.556475768177009,0,0.49296877731418548,1,241.70533975520868,5.5752285061829783,14.640972406502156,2.2099240776239761,1.9642951667809818,1.3803379627920345,1.0995310261832811,-689.01720343045884,-2.7575508863063727E-002,104.38366586639901,190.84663266649488,228.39467639168453,285.92303254415276,93.106779441459224,56.432666666666663,-12.983999999999980,0.98012259420547398,-13.945100135264852,0.24892897651747511
20220311173000,421.19491452489660,1.2848519399657221,1.8233866497235602,0,301.81821983464965,0,23.360935680378034,0,-0.28376092108872480,2,231.51512438459082,5.8498281597261066,14.996258821357365,2.5801311253414743,2.0631579326981808,1.4911390646038492,1.2101939895074121,-485.91384357378070,-3.9101582001162018E-002,105.95571214491596,193.72083464206881,231.83436207501910,290.22911085173598,93.112202214590852,52.085000000000001,-12.723999999999990,1.1008673367659139,-13.756756345044494,0.47394970976880968
20220311180000,420.92705577920935,1.3600456483528427,1.6676296250280411,0,244.17892725036089,0,23.490106664383713,0,9.5283630658932500E-002,2,228.23210253393776,4.5932123976061972,12.962202430133239,2.3132985857623947,1.7394061808733809,1.3134369887164754,1.1577492779756380,-525.93745146694698,-3.6125968871403090E-002,113.19288282003393,206.95269081338549,247.66951444886416,310.05284255625207,93.128228937499998,54.186999999999998,-12.507666666666694,1.0711367815972248,-13.463190016004830,0.44673482716537521
20220311183000,420.83245699955171,1.3018943570456032,1.5586140421887567,0,184.84951205885233,0,11.489216876943225,1,0.64164174082115244,2,229.50636488173313,5.7605093500955720,14.449522372021546,2.4774758641025167,2.2543948703379386,1.3486868676972061,1.1198691667503913,-628.67661209993253,-3.0222215419363839E-002,107.90953640337878,197.29304852682537,236.10938973891609,295.58093819369799,93.112681714626746,50.857666666666667,-12.265333333333331,1.1716567560631814,-13.279989300197997,0.35379554280092096
20220311190000,420.72912351457035,1.3230684112147502,1.8305586096939874,0,271.78255926389716,0,20.202231823506366,0,0.42101600732309191,1,234.04489993663066,6.3745751201797978,16.752686755081630,2.5474206656749829,2.1090464166048686,1.5041112839464974,1.2137792233319398,-544.38193830641785,-3.4901966180416175E-002,105.47333630315008,192.83889775743677,230.77890887393787,288.90780868861532,93.100960032335081,51.574333333333335,-12.240333333333353,1.1568976120500429,-13.339681030273368,0.41032954297887458
20220311193000,420.91715487817788,1.4503862597539239,1.9211392575691877,0,250.69820238954549,0,2.8740956716329831,2,-0.67462790052634536,2,237.18087195994229,5.4404290911077409,13.897458550311464,2.5126587279775605,2.0642947509923073,1.4399743501090254,1.2430869730528955,-634.02166444106399,-2.9967430240337097E-002,111.31977172422273,203.52804633209900,243.57108967116929,304.92210107135429,93.111905495876741,57.153333333333336,-12.373333333333335,1.0127000855488659,-13.340336369832301,0.39330939798674686
20220311200000,420.96106809156271,1.5163705482994521,1.8065090355244164,0,221.18928747833650,0,27.785320550279188,1,0.12559232778966373,2,241.74534142289588,5.0409519740487969,15.023186370769745,2.4244119838556162,2.1273429009515956,1.4163972900473663,1.2052879849330123,-655.11989037332637,-2.9002325038814905E-002,110.04732540082107,201.20160862698063,240.78693791862327,301.43667345663232,93.129101893446176,59.860999999999997,-12.393333333333317,0.94717410380214206,-13.337069936964213,0.29903283638201256
20220311203000,421.08219275227117,1.6453408508140031,1.8197976195833072,0,215.37390165467926,0,-6.6456228037578979,2,-9.2871517349149391E-002,2,236.93456097312415,4.9489527008305174,14.302754363479778,2.2414323753884142,2.1960078073913709,1.4586154675583316,1.2088044854569018,-678.88202762908190,-2.7987189565697200E-002,107.74251238466172,196.98767535103204,235.74393604088883,295.12343353008123,93.158852447048616,66.679666666666662,-12.714333333333343,0.76614753265156310,-13.617664955139105,0.33425477772823053
20220311210000,421.11248476863443,1.5590992616649704,2.0512851698529388,0,159.60199624893508,1,46.261255764177434,1,0.58784809654960302,0,254.09362597025398,5.5280298834219765,15.426362398599231,2.7574922105352573,1.8047138295526648,1.3941937310462225,1.2824325253692666,-1094.2451158672275,-1.7363568477015166E-002,117.11810011268356,214.12923990819570,256.25801079913782,320.80462083874289,93.199916326640462,64.578333333333333,-12.978333333333353,0.79723788270607288,-13.809977888846390,0.27291190800587728
20220311213000,420.89938073610239,1.5183357652471356,2.1804342976575608,0,161.34741753684810,0,1.8691155937720800,2,7.9820042869921032E-002,2,249.71434662335574,5.6390677739060342,14.260399241044945,2.5935435248196872,2.1036631763770695,1.4503721799042906,1.3218292769470543,-1185.5747111090698,-1.6025982860435734E-002,116.25499573418693,212.55120983128103,254.36951183157632,318.44044422879568,93.235482720920132,63.106333333333332,-13.016000000000020,0.82783616982672215,-13.838408510843919,0.22431290488186981
20220311220000,421.09680740579569,1.4772381440340794,1.6589189123760095,0,116.30596138399511,0,19.421669550156022,1,0.21941489137339890,1,259.64830499199900,4.7607975742095121,16.476702202361388,2.3890045495347727,1.7100530383598389,1.2275171285429227,1.1524713026198770,-1090.5940982392681,-1.7421697064631963E-002,119.05206890586189,217.66515166983635,260.48959409335674,326.10206098516431,93.299479215711813,61.643333333333331,-13.056666666666672,0.85782945702992386,-13.915719295077906,0.23835567614602546
20220311223000,421.15603911040029,1.5462926271620079,1.1921096068906682,0,63.437593069176991,0,8.2696327654269997,0,0.30429262843433164,0,251.40246484270739,3.9140101546667889,12.764021733686446,1.9483555015407881,1.8691369518835212,1.1609896466840091,0.97642132652923042,-1216.4374314536003,-1.5619381242893571E-002,109.01895819647532,199.32142539653881,238.53683879728197,298.61981636318797,93.343347137500345,65.452333333333328,-13.226666666666688,0.76205290239723555,-13.979107297369637,0.17583947000642194